This is the latest recevied weather packets stored in our database for station/object W5CRT. If no packets are shown the sender has not sent any weather packets the latest 10 day(s).
| Time | Temp. | Humidity | Pressure | Rain* | Wind** | Luminosity | Snow |
|---|---|---|---|---|---|---|---|
| 1777727691 | 14.44° C | 66% | 1019.2 hPa | 0 mm | - | 170 W/m² | - |
| 1777727388 | 14.44° C | 68% | 1019.3 hPa | 0 mm | - | 154 W/m² | - |
| 1777727086 | 14.44° C | 69% | 1019.1 hPa | 0 mm | - | 142 W/m² | - |
| 1777726783 | 14.44° C | 70% | 1018.9 hPa | 0 mm | - | 128 W/m² | - |
| 1777726480 | 14.44° C | 71% | 1018.8 hPa | 0 mm | - | 106 W/m² | - |
| 1777726177 | 13.89° C | 71% | 1018.8 hPa | 0 mm | - | 102 W/m² | - |
| 1777725873 | 13.33° C | 73% | 1018.8 hPa | 0 mm | - | 86 W/m² | - |
| 1777725571 | 13.33° C | 75% | 1018.7 hPa | 0 mm | - | 75 W/m² | - |
| 1777725268 | 13.33° C | 77% | 1018.7 hPa | 0 mm | - | 67 W/m² | - |
| 1777724966 | 13.33° C | 78% | 1018.6 hPa | 0 mm | - | 60 W/m² | - |
| 1777724360 | 13.33° C | 79% | 1018.5 hPa | 0 mm | - | 47 W/m² | - |
| 1777724056 | 13.33° C | 79% | 1018.5 hPa | 0 mm | - | 40 W/m² | - |
| 1777723754 | 12.78° C | 81% | 1018.4 hPa | 0 mm | - | 34 W/m² | - |
| 1777723450 | 12.22° C | 82% | 1018.1 hPa | 0 mm | - | 28 W/m² | - |
| 1777723148 | 12.22° C | 84% | 1018.2 hPa | 0 mm | - | 23 W/m² | - |
| 1777722540 | 11.67° C | 85% | 1018 hPa | 0 mm | - | 12 W/m² | - |
| 1777721935 | 12.22° C | 85% | 1017.9 hPa | 0 mm | - | 5 W/m² | - |
| 1777721632 | 12.22° C | 87% | 1017.7 hPa | 0 mm | - | 2 W/m² | - |
| 1777721331 | 12.22° C | 87% | 1017.9 hPa | 0 mm | - | 1 W/m² | - |
| 1777721028 | 12.22° C | 87% | 1017.6 hPa | 0 mm | - | 0 W/m² | - |
| 1777720725 | 12.22° C | 86% | 1017.7 hPa | 0 mm | - | 0 W/m² | - |
| 1777720422 | 12.22° C | 86% | 1017.7 hPa | 0 mm | - | 0 W/m² | - |
| 1777720120 | 12.22° C | 85% | 1017.5 hPa | 0 mm | - | 0 W/m² | - |
| 1777719818 | 12.22° C | 85% | 1017.6 hPa | 0 mm | - | 0 W/m² | - |
| 1777719515 | 12.22° C | 85% | 1017.5 hPa | 0 mm | - | 0 W/m² | - |
* Rain latest hour (hover to see other rain measurements)
** Current wind speed in m/s (hover to see current wind gust speed)